Location: Mercogliano
(40.9167°N, 14.7333°E)
Time: 04:37:58
(UTC+00:00)

Meteor 1-24 Rocket - Pass Details

Date: 18 September 2020
Orbit: 790 x 927 km, 81.2° (Epoch: 25 October)

Event Time Altitude Azimuth Distance (km) Brightness Sun altitude
Rises 19:07:42 0° 358° (N) 3,354 7.2 -23.4°
Reaches altitude 10° 19:10:14 10° 6° (N) 2,436 6.3 -23.8°
Enters shadow 19:14:22 36° 50° (NE) 1,315 4.5 -24.5°
